EW0520 Weather Reports


time (UTC)temp
C
wind
direction
speed
KPH
gust
KPH
rain 1hr
cm
rain 24hr
cm
rain mn
cm
humidity
%
barometer
mb
20260506091508 6 301 3.2 9.7 0.08 3.02 0.79 97 1006.9
20260506091007 6 320 3.2 8.0 0.10 3.02 0.79 97 1006.8
20260506090507 6 338 3.2 8.0 0.13 3.02 0.79 96 1006.5
20260506090007 6 331 4.8 9.7 0.10 3.00 0.76 96 1006.4
20260506085507 6 339 6.4 12.9 0.13 3.00 0.76 96 1006.5
20260506085007 6 347 6.4 12.9 0.15 3.00 0.76 96 1006.7
20260506084507 6 340 4.8 12.9 0.15 3.00 0.76 96 1006.4
20260506084007 6 331 4.8 12.9 0.18 3.00 0.76 96 1007.0
20260506083506 6 325 3.2 9.7 0.18 2.97 0.74 97 1006.9
20260506083007 6 309 4.8 12.9 0.20 2.97 0.74 96 1007.1
20260506082507 6 310 4.8 14.5 0.20 2.95 0.71 96 1007.2
20260506082007 6 321 4.8 14.5 0.23 2.95 0.71 97 1007.1
20260506081007 6 301 4.8 14.5 0.23 2.92 0.69 96 1007.0
20260506073506 6 342 4.8 14.5 0.15 2.79 0.56 96 1006.4
20260506073007 6 342 4.8 14.5 0.18 2.77 0.53 96 1006.3
20260506072507 6 332 4.8 12.9 0.15 2.74 0.51 96 1006.4
20260506072007 6 333 3.2 8.0 0.15 2.72 0.48 96 1006.5
20260506071507 6 350 4.8 11.3 0.15 2.69 0.46 96 1006.4
20260506070507 6 337 6.4 14.5 0.20 2.69 0.46 96 1006.4
20260506062006 7 346 4.8 9.7 0.18 2.54 0.30 96 1006.4
20260506061507 7 352 4.8 11.3 0.18 2.54 0.30 96 1006.6
20260506061006 7 359 4.8 11.3 0.18 2.51 0.28 96 1006.6
20260506060507 7 9 4.8 9.7 0.15 2.49 0.25 96 1006.6
20260506051007 8 316 3.2 9.7 0.10 2.34 0.10 97 1007.3
20260506045007 8 315 3.2 8.0 0.15 2.34 0.10 96 1007.4
20260506043507 8 322 6.4 17.7 0.15 2.31 0.08 96 1007.6
20260506043006 8 333 6.4 14.5 0.13 2.29 0.05 96 1007.6
20260506042506 8 334 4.8 12.9 0.15 2.29 0.05 97 1007.7
20260506042007 8 322 3.2 8.0 0.15 2.29 0.05 97 1007.7
20260506041507 8 317 3.2 8.0 0.15 2.26 0.03 97 1007.8
20260506041007 8 317 3.2 9.7 0.15 2.24 0.00 97 1007.8
20260506040507 8 315 3.2 9.7 0.18 2.24 0.00 97 1007.8
20260506040007 8 302 3.2 6.4 0.20 2.24 0.00 97 1007.8
20260506035507 8 297 3.2 6.4 0.20 2.21 2.21 96 1007.9
20260506035007 8 304 3.2 12.9 0.20 2.18 2.18 96 1007.9
20260506034507 8 284 3.2 12.9 0.23 2.18 2.18 96 1008.0
20260506033507 8 305 3.2 9.7 0.33 2.16 2.16 97 1007.8
20260506033006 8 276 1.6 4.8 0.38 2.16 2.16 97 1008.4
20260506032507 8 276 0.0 4.8 0.38 2.13 2.13 97 1008.2
20260506032006 8 276 0.0 3.2 0.41 2.13 2.13 97 1008.3
20260506031507 8 276 1.6 6.4 0.41 2.11 2.11 97 1008.3
20260506031006 8 276 3.2 11.3 0.41 2.08 2.08 97 1008.3
20260506030507 8 281 3.2 11.3 0.38 2.06 2.06 96 1008.2
20260506025507 8 351 3.2 8.0 0.38 2.01 2.01 97 1007.7
20260506024507 8 355 3.2 9.7 0.38 1.96 1.96 96 1007.6
20260506024006 8 335 3.2 9.7 0.36 1.88 1.88 96 1007.6
20260506023507 8 288 1.6 6.4 0.33 1.83 1.83 96 1007.5
20260506023006 8 284 1.6 4.8 0.33 1.78 1.78 96 1007.7
20260506022507 8 284 1.6 4.8 0.33 1.75 1.75 96 1007.7
20260506022006 8 284 1.6 4.8 0.33 1.73 1.73 96 1007.6
20260506021507 8 284 1.6 6.4 0.33 1.70 1.70 96 1007.6
20260506021007 8 284 1.6 6.4 0.30 1.68 1.68 97 1007.6
20260506020506 8 283 3.2 6.4 0.30 1.68 1.68 97 1007.6
20260506020007 8 281 1.6 6.4 0.30 1.65 1.65 96 1007.7
20260506015506 8 279 1.6 3.2 0.28 1.63 1.63 96 1007.6
20260506015007 8 279 0.0 3.2 0.25 1.60 1.60 96 1007.6
20260506014507 8 279 0.0 3.2 0.23 1.57 1.57 96 1007.8
20260506014007 8 279 0.0 3.2 0.18 1.52 1.52 96 1007.7
20260506013507 9 357 1.6 9.7 0.15 1.50 1.50 96 1007.7
20260506013007 9 353 3.2 9.7 0.13 1.45 1.45 96 1007.7
20260506012507 9 15 1.6 4.8 0.10 1.42 1.42 96 1007.5
20260506012006 9 48 1.6 4.8 0.08 1.40 1.40 96 1007.3
20260506011507 8 50 1.6 6.4 0.05 1.37 1.37 96 1007.1
20260506011006 8 37 1.6 6.4 0.08 1.37 1.37 96 1007.2
20260506010507 8 24 1.6 6.4 0.10 1.37 1.37 96 1007.2
20260506010006 8 19 0.0 3.2 0.13 1.35 1.35 96 1007.3
20260506005006 8 19 1.6 4.8 0.15 1.35 1.35 96 1007.2
20260506004507 8 19 1.6 4.8 0.18 1.35 1.35 96 1007.2
20260506003007 8 25 1.6 6.4 0.28 1.32 1.32 96 1007.0
20260506002506 8 9 3.2 8.0 0.51 1.32 1.32 96 1007.0
20260506002007 8 326 3.2 8.0 0.56 1.32 1.32 96 1007.1
20260506001506 8 302 1.6 6.4 0.64 1.32 1.32 96 1007.2
20260506001007 8 302 3.2 6.4 0.61 1.30 1.30 96 1007.3
20260505235506 9 300 1.6 6.4 0.53 1.19 1.19 95 1007.7
20260505234507 9 311 3.2 8.0 0.53 1.17 1.17 96 1007.4
20260505234006 9 318 4.8 19.3 0.51 1.14 1.14 95 1007.2
20260505233507 9 307 8.0 27.4 0.48 1.12 1.12 95 1007.2
20260505233007 10 301 8.0 27.4 0.33 0.97 0.97 95 1008.1
20260505232006 10 337 6.4 19.3 0.13 0.74 0.74 95 1007.0
20260505231507 10 337 6.4 16.1 0.10 0.69 0.69 95 1007.0
20260505231006 10 338 4.8 14.5 0.13 0.69 0.69 95 1007.0
20260505230507 10 355 6.4 14.5 0.10 0.66 0.66 95 1007.0
20260505230007 10 352 6.4 14.5 0.10 0.66 0.66 95 1006.9
20260505225507 10 337 4.8 9.7 0.10 0.66 0.66 95 1007.0
20260505225006 10 325 3.2 9.7 0.10 0.64 0.64 95 1006.9
20260505224506 10 336 3.2 9.7 0.10 0.64 0.64 95 1007.0
20260505224006 10 346 3.2 9.7 0.10 0.64 0.64 95 1007.1
20260505223506 10 336 3.2 16.1 0.10 0.64 0.64 95 1007.2
20260505223007 11 320 3.2 16.1 0.18 0.64 0.64 95 1007.3
20260505222507 11 310 4.8 16.1 0.30 0.61 0.61 95 1007.3
20260505222006 11 312 8.0 19.3 0.36 0.61 0.61 95 1007.1
20260505221006 12 317 6.4 16.1 0.30 0.56 0.56 95 1007.3
20260505220506 12 323 6.4 16.1 0.30 0.56 0.56 95 1006.8
20260505220007 13 298 3.2 12.9 0.30 0.56 0.56 95 1007.0
20260505215506 13 244 1.6 4.8 0.30 0.56 0.56 95 1007.1
20260505215007 13 250 1.6 6.4 0.36 0.53 0.53 95 1006.9
20260505214006 13 263 1.6 6.4 0.41 0.53 0.53 95 1007.0
20260505213506 13 266 3.2 16.1 0.41 0.53 0.53 95 1007.0
20260505213006 13 273 4.8 16.1 0.30 0.43 0.43 94 1007.2
20260505212507 13 284 3.2 11.3 0.18 0.30 0.30 94 1007.0
20260505212007 13 289 1.6 8.0 0.13 0.25 0.25 94 1006.7
20260505211506 13 307 1.6 4.8 0.13 0.25 0.25 94 1006.6
20260505211007 13 318 1.6 9.7 0.13 0.25 0.25 94 1006.6
20260505210506 13 322 1.6 9.7 0.13 0.25 0.25 94 1006.7
20260505210007 13 312 1.6 6.4 0.13 0.25 0.25 93 1006.7
20260505205506 13 294 3.2 14.5 0.13 0.25 0.25 93 1006.9
20260505205006 13 296 6.4 14.5 0.05 0.18 0.18 92 1007.0
20260505204506 13 301 4.8 14.5 0.03 0.15 0.15 92 1006.9
20260505203506 14 316 4.8 11.3 0.00 0.13 0.13 91 1006.7
20260505203006 14 309 3.2 11.3 0.00 0.13 0.13 91 1006.6
20260505202507 15 306 3.2 11.3 0.00 0.13 0.13 93 1006.6
20260505201506 15 268 1.6 4.8 0.03 0.13 0.13 93 1006.6
20260505201006 15 268 1.6 6.4 0.05 0.13 0.13 93 1006.7
20260505200506 15 267 3.2 6.4 0.08 0.13 0.13 92 1006.6
20260505200007 15 266 3.2 6.4 0.10 0.13 0.13 92 1006.6
20260505195506 15 266 1.6 6.4 0.10 0.13 0.13 92 1006.6
20260505194006 15 264 3.2 9.7 0.13 0.13 0.13 92 1006.6
20260505193506 15 251 3.2 9.7 0.13 0.13 0.13 91 1006.5
20260505193006 15 232 1.6 4.8 0.13 0.13 0.13 90 1006.9
20260505192506 15 226 3.2 9.7 0.10 0.10 0.10 89 1007.0
20260505192006 15 228 3.2 9.7 0.10 0.10 0.10 88 1007.1
20260505191507 15 237 4.8 16.1 0.10 0.10 0.10 87 1007.1
20260505191006 15 247 9.7 20.9 0.08 0.08 0.08 84 1007.2
20260505190507 16 252 9.7 20.9 0.05 0.05 0.05 81 1007.2
20260505190006 16 254 9.7 19.3 0.03 0.03 0.03 77 1007.1
20260505185506 17 251 9.7 22.5 0.00 0.00 0.00 73 1007.0
20260505185006 17 247 11.3 22.5 0.00 0.00 0.00 69 1007.1
20260505184506 17 250 11.3 27.4 0.00 0.00 0.00 69 1007.1
20260505184006 17 248 11.3 30.6 0.00 0.00 0.00 68 1007.0
20260505183506 17 242 11.3 33.8 0.00 0.00 0.00 68 1007.0
20260505183006 17 251 12.9 33.8 0.00 0.00 0.00 68 1007.0
20260505182506 17 268 12.9 30.6 0.00 0.00 0.00 68 1007.1
20260505181006 18 267 9.7 20.9 0.00 0.00 0.00 67 1007.0
20260505180506 18 267 9.7 17.7 0.00 0.00 0.00 68 1006.9
20260505180006 18 268 11.3 22.5 0.00 0.00 0.00 67 1006.9
20260505175507 18 270 14.5 25.7 0.00 0.00 0.00 66 1006.8
20260505175006 18 269 14.5 25.7 0.00 0.00 0.00 66 1006.8
20260505174506 18 266 16.1 25.7 0.00 0.00 0.00 65 1006.7
20260505174006 18 262 17.7 37.0 0.00 0.00 0.00 64 1006.7
20260505172506 19 255 17.7 38.6 0.00 0.00 0.00 61 1006.5
20260505171506 19 256 17.7 40.2 0.00 0.00 0.00 61 1006.4
20260505171006 19 258 16.1 40.2 0.00 0.00 0.00 60 1006.3
20260505170006 19 252 14.5 25.7 0.00 0.00 0.00 62 1006.5
20260505165506 19 247 12.9 25.7 0.00 0.00 0.00 62 1006.3
20260505163506 19 250 16.1 37.0 0.00 0.00 0.00 61 1006.1
20260505163008 19 251 16.1 37.0 0.00 0.00 0.00 60 1006.1
20260505162506 20 254 14.5 30.6 0.00 0.00 0.00 59 1006.1
20260505162006 20 246 16.1 46.7 0.00 0.00 0.00 59 1006.2
20260505161007 21 254 14.5 38.6 0.00 0.00 0.00 59 1006.1
20260505160506 20 248 17.7 32.2 0.00 0.00 0.00 60 1006.0
20260505152506 18 247 17.7 38.6 0.00 0.00 0.00 63 1006.0
20260505152006 19 248 14.5 32.2 0.00 0.00 0.00 64 1005.9
20260505151006 18 251 17.7 41.8 0.00 0.00 0.00 64 1006.0
20260505140505 18 208 11.3 29.0 0.00 0.00 0.00 69 1005.8
20260505125006 15 220 9.7 25.7 0.00 0.00 0.00 76 1005.4
20260505124505 15 217 9.7 29.0 0.00 0.00 0.00 76 1005.3
20260505124006 15 219 11.3 29.0 0.00 0.00 0.00 75 1005.2
20260505123505 15 219 9.7 24.1 0.00 0.00 0.00 76 1005.3
20260505123006 15 208 8.0 20.9 0.00 0.00 0.00 76 1005.3
20260505122506 15 209 9.7 22.5 0.00 0.00 0.00 75 1005.3
20260505122006 15 212 11.3 24.1 0.00 0.00 0.00 75 1005.3
20260505120506 15 207 11.3 27.4 0.00 0.00 0.00 75 1004.9
20260505120006 15 214 9.7 27.4 0.00 0.00 0.00 76 1005.1
20260505115506 15 217 9.7 24.1 0.00 0.00 0.00 77 1005.1
20260505115005 16 220 11.3 22.5 0.00 0.00 0.00 74 1005.2
20260505114506 16 220 11.3 22.5 0.00 0.00 0.00 72 1005.2
20260505114006 16 216 12.9 30.6 0.00 0.00 0.00 72 1005.1
20260505113506 16 218 11.3 30.6 0.00 0.00 0.00 71 1004.7
20260505113006 16 220 9.7 24.1 0.00 0.00 0.00 71 1004.6
20260505112506 16 214 12.9 27.4 0.00 0.00 0.00 69 1004.6
20260505112006 16 212 11.3 27.4 0.00 0.00 0.00 69 1004.7
20260505111506 16 220 9.7 22.5 0.00 0.00 0.00 69 1004.6
20260505111006 16 219 9.7 22.5 0.00 0.00 0.00 69 1004.8
20260505110505 16 216 11.3 25.7 0.00 0.00 0.00 69 1004.6
20260505102006 17 221 12.9 33.8 0.00 0.00 0.00 66 1004.0
20260505101506 17 220 14.5 35.4 0.00 0.00 0.00 66 1004.0
20260505100505 17 224 14.5 29.0 0.00 0.00 0.00 66 1003.7
20260505100006 17 219 12.9 29.0 0.00 0.00 0.00 66 1003.6
20260505095505 17 217 12.9 27.4 0.00 0.00 0.00 67 1003.5
20260505095006 17 219 12.9 30.6 0.00 0.00 0.00 67 1003.5
20260505094505 17 215 14.5 30.6 0.00 0.00 0.00 67 1003.4
20260505093506 17 213 12.9 27.4 0.00 0.00 0.00 66 1003.2
20260505093005 17 212 11.3 27.4 0.00 0.00 0.00 66 1003.2
20260505092506 17 217 12.9 35.4 0.00 0.00 0.00 66 1003.1